Flag for Canada Weather past 2 weeks in Clarington, Ontario, Canada

Now
7 °F

Overcast.


Feels Like: -12 °F
Forecast: 4 / 15 °F
Wind: 18 mph from Northwest

Location: Peterborough Airport

Current Time: Mar 5, 2015 at 3:57:10 AM

Latest Report: Mar 5, 2015 at 3:00 AM


Visibility: 9 mi

Pressure: 30.19 "Hg

Humidity: 66%

Dew point: -2 °F

Location of ClaringtonLocation

Historic Weather in Clarington — Graph

°F

Clarington temperature yesterday

Maximum temperature yesterday: 30 °F (at 12:00 AM)
Minimum temperature yesterday: 16 °F (at 11:00 PM)
Average temperature yesterday: 27 °F

Past Weeks' High & Low Weather Summary

 TemperatureHumidityPressure
High30 °F (Mar 3, 10:00 PM)100% (Feb 21, 7:00 PM)30.77 "Hg (Feb 21, 7:00 PM)
Low-18 °F (Feb 23, 9:00 PM)40% (Feb 26, 2:00 PM)29.54 "Hg (Mar 3, 8:55 PM)
Average7 °F75%30.14 "Hg
* Reported Feb 18 2:00 AM — Mar 5 2:00 AM, Clarington, Weather by CustomWeather, © 2015

Note: Actual official high and low records may vary slightly from our data, if they occured in-between our weather recording intervals... More about our weather records

Advertising

Clarington weather history for previous 24 hours

 ConditionsComfort  
Time TempWeatherWind HumidityBarometerVisibility
2:00 AM
Thu, Mar 5
9 °FOvercast.17 mph56%30.16 "Hg9 mi
1:00 AM10 °FPassing clouds.14 mph56%30.12 "Hg9 mi
12:00 AM12 °FPassing clouds.15 mph57%30.11 "Hg9 mi
11:00 PM
Wed, Mar 4
16 °FLight snow. Mostly cloudy.17 mph73%30.06 "Hg9 mi
10:00 PM18 °FMostly cloudy.10 mph73%30.04 "Hg9 mi
9:00 PM18 °FOvercast.10 mph73%30.00 "Hg9 mi
8:00 PM21 °FMostly cloudy.10 mph68%29.95 "Hg9 mi
7:00 PM21 °FMostly cloudy.7 mph68%29.94 "Hg9 mi
5:00 PM25 °FOvercast.13 mph69%29.90 "Hg9 mi
4:00 PM27 °FPartly sunny.13 mph69%29.88 "Hg9 mi
3:00 PM28 °FOvercast.17 mph64%29.87 "Hg9 mi
2:00 PM28 °FOvercast.14 mph69%29.85 "Hg9 mi
1:00 PM28 °FMore clouds than sun.18 mph69%29.85 "Hg9 mi
12:59 PM28 °FMore clouds than sun.16 mph69%29.85 "Hg9 mi
12:04 PM28 °FLight snow. More clouds than sun.15 mph74%29.86 "Hg9 mi
11:55 AM28 °FLight snow. Cloudy.13 mph80%29.86 "Hg9 mi
11:00 AM30 °FOvercast.16 mph69%29.84 "Hg9 mi
10:00 AM30 °FSunny.16 mph69%29.83 "Hg9 mi
9:00 AM28 °FPassing clouds.14 mph74%29.82 "Hg9 mi
8:00 AM28 °FPartly sunny.10 mph69%29.80 "Hg9 mi
7:00 AM28 °FPartly sunny.14 mph74%29.76 "Hg9 mi
6:00 AM28 °FOvercast.10 mph86%29.76 "Hg9 mi
5:00 AM28 °FOvercast.9 mph86%29.73 "Hg9 mi
4:00 AM28 °FOvercast.9 mph86%29.71 "Hg9 mi
3:00 AM28 °FLight snow. Mostly cloudy.10 mph86%29.69 "Hg9 mi
Weather by CustomWeather, © 2015

See weather overviewHow to use our weather pages